Location: Unspecified
(0.0000°N, 0.0000°E)
Time: 01:22:58
(UTC+00:00)

Tiros 1 - Pass Details

Date: 20 November 2019
Orbit: 630 x 664 km, 48.4° (Epoch: 11 December)

Event Time Altitude Azimuth Distance (km) Brightness Sun altitude
Rises 10:26:53 0° 215° (SW) 2,946 10.6 62.5°
Reaches altitude 10° 10:29:14 10° 213° (SSW) 2,029 9.9 62.9°
Maximum altitude 10:33:54 73° 128° (SE) 665 9.7 63.6°
Drops below altitude 10° 10:38:29 10° 44° (NE) 2,004 9.8 64.4°
Sets 10:40:48 0° 42° (NE) 2,905 10.5 64.7°
